EST,Max TemperatureF,Mean TemperatureF,Min TemperatureF,Max Dew PointF,MeanDew PointF,Min DewpointF,Max Humidity, Mean Humidity, Min Humidity, Max Sea Level PressureIn, Mean Sea Level PressureIn, Min Sea Level PressureIn, Max VisibilityMiles, Mean VisibilityMiles, Min VisibilityMiles, Max Wind SpeedMPH, Mean Wind SpeedMPH, Max Gust SpeedMPH,PrecipitationIn, CloudCover, Events, WindDirDegrees
2013-12-1,42,38,33,33,30,27,92,73,53,30.07,30.03,30.00,10,7,2,13,6,16,0.00,8,,330
2013-12-2,40,33,25,27,23,20,85,67,48,30.01,29.96,29.92,10,10,10,8,3,20,0.00,5,,52
2013-12-3,38,31,23,36,29,19,89,79,69,29.94,29.89,29.83,10,7,4,14,7,18,0.03,7,Rain,103
2013-12-4,57,46,34,52,42,34,96,87,77,29.90,29.79,29.58,8,4,1,20,8,30,0.14,7,Rain-Thunderstorm,130
2013-12-5,59,45,30,54,34,19,80,67,54,30.15,29.83,29.57,10,9,6,26,15,36,T,6,,251
2013-12-6,30,25,20,19,14,9,69,62,55,30.42,30.28,30.16,10,10,10,16,11,21,0.00,5,,295
2013-12-7,24,18,12,10,7,5,76,63,50,30.64,30.55,30.44,10,10,5,17,9,22,T,4,Snow,287
2013-12-8,27,18,9,23,12,5,83,67,50,30.61,30.34,29.97,10,8,2,15,7,21,0.02,5,Snow,99
2013-12-9,30,25,19,27,21,8,92,75,57,30.09,29.94,29.85,10,6,1,24,15,35,0.05,8,Snow,227
2013-12-10,21,15,8,14,8,1,80,63,45,30.19,30.06,29.95,10,10,5,25,11,35,T,6,Snow,254
2013-12-11,22,14,5,16,9,-2,80,67,54,30.46,30.28,30.14,10,8,1,21,10,24,0.01,5,Snow,270
2013-12-12,21,12,2,13,5,-3,83,66,49,30.46,30.32,30.17,10,8,2,23,10,31,T,7,Snow,235
2013-12-13,27,24,21,19,15,13,81,68,55,30.32,30.21,30.10,10,10,7,16,8,21,0.00,8,,334
2013-12-14,22,20,18,18,15,12,84,76,68,30.31,30.08,29.83,10,2,0,20,12,25,0.23,8,Snow,66
2013-12-15,24,18,12,19,13,1,92,75,58,30.04,29.85,29.78,10,6,1,28,12,33,0.05,8,Snow,265
2013-12-16,24,11,-3,11,4,-2,86,64,41,30.21,30.09,29.99,10,9,1,15,4,20,0.01,4,Snow,212
2013-12-17,29,22,15,23,17,10,84,76,68,30.03,29.92,29.84,10,5,1,17,8,22,0.03,8,Snow,223
2013-12-18,30,27,24,23,19,11,81,66,50,30.11,30.01,29.87,10,7,2,21,10,26,T,6,Snow,230
2013-12-19,39,34,29,31,26,16,89,69,49,30.01,29.93,29.84,10,7,1,18,8,21,0.01,5,,89
2013-12-20,35,34,33,32,31,30,96,93,89,29.90,29.81,29.74,10,3,1,13,7,15,0.21,8,Rain,56
2013-12-21,34,33,32,32,30,28,96,89,82,29.89,29.82,29.70,7,3,0,17,8,26,0.43,8,Fog-Rain,29
2013-12-22,33,30,26,31,28,23,92,89,85,29.96,29.74,29.58,10,5,1,15,10,21,0.23,8,Rain-Snow,30
2013-12-23,27,24,20,22,21,14,88,82,75,30.31,30.20,29.98,10,7,2,15,8,18,0.03,8,Snow,287
2013-12-24,20,10,0,16,6,-2,88,78,67,30.57,30.41,30.26,10,6,1,16,7,20,0.10,5,Snow,298
2013-12-25,25,17,9,20,14,4,84,79,73,30.51,30.27,30.08,10,5,1,18,9,21,0.90,8,Snow,181
2013-12-26,27,24,21,23,19,13,88,77,65,30.28,30.14,29.99,10,5,1,24,9,30,0.08,7,Snow,237
2013-12-27,39,33,26,30,26,22,89,80,70,30.32,30.21,30.03,10,6,2,16,6,25,T,6,Snow,223
2013-12-28,48,40,32,31,29,27,82,68,53,30.10,30.00,29.88,10,10,8,17,9,25,0.00,0,,222
2013-12-29,43,31,19,30,24,9,84,71,57,30.04,29.81,29.71,10,7,1,20,11,24,0.03,6,Rain-Snow,306
2013-12-30,19,17,14,11,6,2,74,64,53,30.29,30.18,30.02,10,10,10,20,6,24,T,8,,295
2013-12-31,18,15,11,12,9,3,80,68,56,30.35,30.15,30.02,10,5,0,23,11,28,0.07,8,Snow,269